Location: Cassano d�Adda
(45.5333°N, 9.5167°E)
Time: 14:06:10
(UTC+00:00)

Exosat Rocket - Pass Details

Date: 08 December 2019
Orbit: 760 x 2515 km, 72.3° (Epoch: 27 January)

Event Time Altitude Azimuth Distance (km) Brightness Sun altitude
Rises 16:31:11 0° 189° (S) 3,603 7.5 -9.0°
Reaches altitude 10° 16:33:54 10° 184° (S) 2,512 6.5 -9.4°
Maximum altitude 16:39:10 53° 109° (ESE) 954 3.7 -10.3°
Drops below altitude 10° 16:44:01 10° 33° (NNE) 2,307 5.5 -11.1°
Enters shadow 16:44:24 - 32° (NNE) 2,461 5.6 -11.1°
